Location: Unspecified
(0.0000°N, 0.0000°E)
Time: 14:13:16
(UTC+00:00)

Vanguard 3 - Pass Details

Date: 13 December 2025
Orbit: 507 x 3207 km, 33.3° (Epoch: 22 January)

Event Time Altitude Azimuth Distance (km) Brightness Sun altitude
Rises 05:19:08 0° 220° (SW) 6,463 11.6 -8.1°
Reaches altitude 10° 05:24:12 10° 209° (SSW) 5,745 11.4 -6.9°
Maximum altitude 05:39:36 30° 154° (SSE) 4,630 11.6 -3.3°
Drops below altitude 10° 05:54:46 10° 99° (E) 5,729 13.3 0.1°
Sets 05:59:41 0° 89° (E) 6,452 13.2 1.3°
